METEOR 2-5 DEB

Satellite information

Favourite Embed

Satellite Type and Status

DEBRISIN ORBIT

Key statistics

Satellite METEOR 2-5 DEB at a glance.

Uptime

16750

Days in orbit

Revolutions

≈ 14.4

Per day

Orbit

LEO

Low Earth Orbit

Inclination

81.2

Latest

Satellite identification and parameters

Extended collection of information and parameters for METEOR 2-5 DEB.

Object identification

Identified? True

Debris? True

Object name: METEOR 2-5 DEB

International designator: 1979-095BW

Object number (NORAD): 38276

Object ID (CCSDS): 38276

Country: COMMONWEALTH OF INDEPENDENT STATES (CIS)

Current information (Y/N): Y

RCS size: SMALL

Orbital parameters

Period: 100.189 minutes

Inclination: 81.1845 deg

SMA: 7145.628 km

Apoapsis: 783.748 km

Periapsis: 751.239 km

RAAN: 58.8909 deg

Eccentricy: 0.00227477

Argument of periapsis: 144.9949 deg

Mean anomaly: 341.1383 deg

Mean motion: 14.37282477 rev/day

Mean motion (dot): 0.00004648 rev/day2

B* drag term: 0.0015504972 1/REarth

Two-line elements (TLE)

Creation date: Sept. 8, 2025, 9:49 a.m.

Reference frame: TEME

Reference center: EARTH

Epoch: Sept. 8, 2025, 4:35 a.m. UTC

TLE line 0: 0 METEOR 2-5 DEB

TLE line 1: 1 38276U 79095BW 25251.19112475 .00004648 00000-0 15505-2 0 9991

TLE line 2: 2 38276 81.1845 58.8909 0022748 144.9949 341.1383 14.37282477710722

Live tracking on map

Real-time ground track for satellite METEOR 2-5 DEB.

In-orbit conjunctions

A list of the most updated potential collisions computed for object METEOR 2-5 DEB.

Target Orbit TCA Probability of collision Miss distance Type
NOAA 16 DEB SSO 2025-07-21 07:22:16 0.0002177908 77.0 (m) DEBRIS
SL-6 R/B SSO 2024-08-08 21:28:00 0.001371405 47.0 (m) ROCKET BODY

Associated space launch

Second generation soviet meteorological satellite

METEOR 2-5 DEB was lifted into orbit during the mission ‘Vostok 8A92M | Meteor-2 5’, on board a Vostok 8A92M space rocket.

The launch took place on Oct. 31, 1979, 9:25 a.m. from 43/4 (43R).

For more information about the launch, click the button.

Launch to space Vostok 8A92M | Meteor-2 5
Vostok 8A92M | Meteor-2 5

Agency: N/A

Status: Launch Successful

Launch date: Oct. 31, 1979, 9:25 a.m. UTC

Rocket: Vostok 8A92M

Launch pad: 43/4 (43R)

Location: Plesetsk Cosmodrome, Russian Federation

...

Latest news about this satellite

There are no fresh news available about this satellite. Check back as we update our databases every day.


Newsletter sign-up

Weekly statistics, charts and insights to help you stay on top of the space industry.